{"data":{"norad_id":48776,"epoch":"2026-05-25T00:41:49.570080Z","epoch_age_seconds":79355,"freshness":"FRESH","line1":"1 48776U 21045K   26145.02904595  .00000023  00000+0  27249-4 0  9998","line2":"2 48776  87.9004 263.7926 0001809  96.8211 263.3126 13.15547476241926","mean_motion":13.15547476,"eccentricity":0.0001809,"inclination_deg":87.9004,"raan_deg":263.7926,"arg_perigee_deg":96.8211,"mean_anomaly_deg":263.3126,"bstar":2.7249e-5,"rev_number":24192,"period_min":109.46013171478,"perigee_km":1200.4036868409,"apogee_km":1203.1460989637,"semimajor_km":7579.9118929023,"source":"CELESTRAK","updated_at":"2026-05-25T13:38:22.443208Z"}}